Date String (YYYY-MM-DD hh:mm:ss) UTC,Instrument flags,Ambient pressure (hPa),Sample flow (lpm),Bypass flow (lpm),Sample temperature (°C),Ambient temperature (°C),ASC tube jacket temperature (°C),LED temperature (°C),Box temperature (°C),Sample RH (%),Span deviation,Mass concentration (μg/m³),Mass concentration (μg/m³),Mass concentration (μg/m³)
DateTimeUTC,F1_M11,P_M11,Q1_M11,Q2_M11,T1_M11,T2_M11,T3_M11,T4_M11,T5_M11,U1_M11,ZSPAN_M11,X0_M11,X2_M11,X1_M11
2022-10-28 07:00:00,,0831.4,5.00,0.00,23.7,22.0,00.0,32.7,25.5,13.2,0000.0,0007.66,0003.10,0002.50
2022-10-28 07:01:00,,0831.4,5.00,0.00,23.7,22.0,00.0,32.7,25.5,13.1,0000.0,0007.38,0003.12,0002.49
2022-10-28 07:02:00,,0831.4,5.00,0.00,23.7,22.0,00.0,32.7,25.5,12.7,0000.0,0006.90,0003.11,0002.49
2022-10-28 07:03:00,,0831.3,5.00,0.00,23.7,22.0,00.0,32.6,25.4,12.8,0000.0,0007.00,0003.11,0002.50
2022-10-28 07:04:00,,0831.4,5.00,0.00,23.7,22.0,00.0,32.6,25.5,13.0,0000.0,0006.93,0003.10,0002.51
2022-10-28 07:05:00,,0831.3,5.00,0.00,23.7,22.0,00.0,32.6,25.4,12.8,0000.0,0007.04,0003.14,0002.54
2022-10-28 07:06:00,,0831.4,5.00,0.00,23.7,22.0,00.0,32.6,25.4,12.8,0000.0,0007.04,0003.15,0002.53
2022-10-28 07:07:00,,0831.4,4.99,0.00,23.7,22.0,00.0,32.6,25.4,12.8,0000.0,0006.85,0003.15,0002.53
2022-10-28 07:08:00,,0831.4,5.00,0.00,23.7,22.0,00.0,32.6,25.4,13.2,0000.0,0007.03,0003.17,0002.53
2022-10-28 07:09:00,,0831.4,5.01,0.00,23.6,21.9,00.0,32.6,25.3,13.4,0000.0,0006.95,0003.19,0002.53
2022-10-28 07:10:00,,0831.4,5.00,0.00,23.6,21.9,00.0,32.6,25.4,13.4,0000.0,0005.63,0003.19,0002.54
2022-10-28 07:11:00,,0831.4,4.98,0.00,23.6,21.9,00.0,32.6,25.4,13.6,0000.0,0005.73,0003.21,0002.56
2022-10-28 07:12:00,,0831.4,5.02,0.00,23.6,21.9,00.0,32.6,25.3,13.5,0000.0,0005.59,0003.18,0002.57
2022-10-28 07:13:00,,0831.4,4.99,0.00,23.6,21.9,00.0,32.5,25.3,13.5,0000.0,0004.99,0003.17,0002.59
2022-10-28 07:14:00,,0831.4,4.99,0.00,23.6,21.9,00.0,32.5,25.2,13.6,0000.0,0004.77,0003.18,0002.60
2022-10-28 07:15:00,,0831.4,5.00,0.00,23.6,21.8,00.0,32.5,25.2,13.6,0000.0,0005.16,0003.20,0002.60
2022-10-28 07:16:00,,0831.4,5.02,0.00,23.6,21.8,00.0,32.5,25.3,13.6,0000.0,0005.18,0003.19,0002.60
2022-10-28 07:17:00,,0831.4,5.00,0.00,23.6,21.9,00.0,32.5,25.4,13.7,0000.0,0005.27,0003.18,0002.61
2022-10-28 07:18:00,,0831.4,5.00,0.00,23.5,21.8,00.0,32.5,25.3,13.7,0000.0,0005.21,0003.17,0002.62
2022-10-28 07:19:00,,0831.4,5.00,0.00,23.5,21.8,00.0,32.5,25.2,13.8,0000.0,0004.97,0003.14,0002.63
2022-10-28 07:20:00,,0831.4,5.00,0.00,23.5,21.8,00.0,32.5,25.3,13.8,0000.0,0004.82,0003.10,0002.64
2022-10-28 07:21:00,,0831.3,5.00,0.00,23.5,21.8,00.0,32.5,25.3,13.9,0000.0,0004.96,0003.10,0002.65
2022-10-28 07:22:00,,0831.3,5.00,0.00,23.5,21.8,00.0,32.5,25.2,13.7,0000.0,0005.07,0003.13,0002.66
2022-10-28 07:23:00,,0831.3,4.99,0.00,23.5,21.8,00.0,32.4,25.2,13.4,0000.0,0005.27,0003.14,0002.66
2022-10-28 07:24:00,,0831.4,5.00,0.00,23.5,21.8,00.0,32.4,25.2,13.1,0000.0,0005.34,0003.15,0002.65
2022-10-28 07:25:00,,0831.4,5.00,0.00,23.5,21.8,00.0,32.4,25.2,13.0,0000.0,0005.32,0003.15,0002.65
2022-10-28 07:26:00,,0831.4,5.00,0.00,23.5,21.8,00.0,32.4,25.2,13.6,0000.0,0004.83,0003.13,0002.65
2022-10-28 07:27:00,,0831.4,5.00,0.00,23.5,21.8,00.0,32.4,25.2,13.8,0000.0,0004.73,0003.11,0002.64
2022-10-28 07:28:00,,0831.3,4.99,0.00,23.5,21.8,00.0,32.4,25.2,13.8,0000.0,0004.56,0003.09,0002.64
2022-10-28 07:29:00,,0831.3,5.00,0.00,23.5,21.8,00.0,32.4,25.2,13.9,0000.0,0004.55,0003.08,0002.62
2022-10-28 07:30:00,,0831.3,5.01,0.00,23.5,21.8,00.0,32.4,25.2,13.9,0000.0,0004.68,0003.09,0002.62
2022-10-28 07:31:00,,0831.3,5.00,0.00,23.4,21.8,00.0,32.4,25.1,14.0,0000.0,0004.72,0003.10,0002.62
2022-10-28 07:32:00,,0831.2,5.01,0.00,23.4,21.7,00.0,32.4,25.1,14.0,0000.0,0004.56,0003.08,0002.63
2022-10-28 07:33:00,,0831.2,4.98,0.00,23.4,21.7,00.0,32.4,25.1,14.0,0000.0,0004.70,0003.01,0002.63
2022-10-28 07:34:00,,0831.3,5.00,0.00,23.4,21.7,00.0,32.3,25.1,14.1,0000.0,0005.50,0003.00,0002.63
2022-10-28 07:35:00,,0831.2,5.01,0.00,23.4,21.7,00.0,32.3,25.1,14.1,0000.0,0006.02,0002.96,0002.63
2022-10-28 07:36:00,,0831.2,5.00,0.00,23.4,21.7,00.0,32.3,25.1,14.2,0000.0,0006.10,0002.97,0002.62
2022-10-28 07:37:00,,0831.3,5.01,0.00,23.4,21.7,00.0,32.3,25.1,14.2,0000.0,0006.17,0003.00,0002.62
2022-10-28 07:38:00,,0831.3,5.00,0.00,23.4,21.7,00.0,32.3,25.1,14.2,0000.0,0006.59,0002.98,0002.62
2022-10-28 07:39:00,,0831.4,5.00,0.00,23.4,21.6,00.0,32.3,25.0,14.1,0000.0,0007.37,0002.96,0002.62
2022-10-28 07:40:00,,0831.4,5.00,0.00,23.3,21.6,00.0,32.3,24.9,14.0,0000.0,0007.45,0003.00,0002.63
2022-10-28 07:41:00,,0831.4,5.00,0.00,23.3,21.6,00.0,32.3,25.0,14.0,0000.0,0007.42,0003.00,0002.61
2022-10-28 07:42:00,,0831.4,5.00,0.00,23.3,21.6,00.0,32.3,25.0,14.0,0000.0,0007.40,0003.00,0002.60
2022-10-28 07:43:00,,0831.4,5.00,0.00,23.3,21.6,00.0,32.3,25.0,14.1,0000.0,0007.43,0003.01,0002.59
2022-10-28 07:44:00,,0831.4,5.00,0.00,23.3,21.6,00.0,32.2,24.9,14.0,0000.0,0007.18,0003.03,0002.58
2022-10-28 07:45:00,,0831.5,5.00,0.00,23.3,21.6,00.0,32.2,25.0,14.0,0000.0,0006.37,0003.02,0002.57
2022-10-28 07:46:00,,0831.4,5.00,0.00,23.3,21.5,00.0,32.2,25.0,14.0,0000.0,0005.78,0003.02,0002.57
2022-10-28 07:47:00,,0831.4,5.01,0.00,23.3,21.5,00.0,32.2,25.0,13.9,0000.0,0005.64,0003.00,0002.57
2022-10-28 07:48:00,,0831.4,5.02,0.00,23.2,21.5,00.0,32.2,24.9,14.0,0000.0,0005.53,0002.96,0002.56
2022-10-28 07:49:00,,0831.4,5.01,0.00,23.2,21.5,00.0,32.2,24.9,14.0,0000.0,0005.22,0002.95,0002.56
2022-10-28 07:50:00,,0831.4,5.00,0.00,23.2,21.5,00.0,32.2,24.9,13.8,0000.0,0004.19,0002.96,0002.56
2022-10-28 07:51:00,,0831.5,5.00,0.00,23.2,21.5,00.0,32.2,24.9,13.9,0000.0,0004.10,0002.90,0002.55
2022-10-28 07:52:00,,0831.5,5.01,0.00,23.2,21.5,00.0,32.2,24.9,13.9,0000.0,0004.07,0002.88,0002.53
2022-10-28 07:53:00,,0831.4,5.00,0.00,23.2,21.5,00.0,32.1,24.9,13.8,0000.0,0004.87,0002.92,0002.54
2022-10-28 07:54:00,,0831.4,5.00,0.00,23.2,21.5,00.0,32.1,24.9,14.0,0000.0,0004.93,0002.92,0002.54
2022-10-28 07:55:00,,0831.4,5.00,0.00,23.2,21.5,00.0,32.1,24.9,14.1,0000.0,0004.81,0002.90,0002.54
2022-10-28 07:56:00,,0831.4,5.00,0.00,23.2,21.5,00.0,32.1,24.9,14.2,0000.0,0004.74,0002.88,0002.54
2022-10-28 07:57:00,,0831.4,5.00,0.00,23.2,21.5,00.0,32.1,24.9,14.0,0000.0,0004.90,0002.85,0002.52
2022-10-28 07:58:00,,0831.5,5.00,0.00,23.1,21.4,00.0,32.1,24.9,14.0,0000.0,0005.97,0002.81,0002.52
2022-10-28 07:59:00,,0831.4,5.00,0.00,23.1,21.4,00.0,32.1,24.9,14.0,0000.0,0005.90,0002.79,0002.51
